[[{"header":{"parameterUnit":"m.s-1","parameterCategory":1,"la1":30.2992,"la2":30.254,"lo1":-89.0895,"lo2":-89.0443,"dy":0.0025,"dx":0.0025,"nx":19,"ny":19,"refTime":"2026-05-09T03:00:00:Z","depth":0,"parameterNumber":2,"parameterNumberName":"U-component_of_WINDS"},"data":[0,0,0,-5.5974,-5.5973,-5.5907,-5.5906,-5.5876,-5.5876,0,0,0,0,0,0,0,0,0,0,0,-5.6026,-5.6027,-5.5974,-5.5973,-5.5907,-5.5906,-5.5876,-5.5876,0,0,0,0,0,0,0,0,0,0,0,-5.6025,-5.6027,-5.6028,-5.5973,-5.5907,-5.5906,-5.5876,-5.5906,0,0,0,0,0,0,0,0,0,0,-5.5962,-5.6041,-5.6026,-5.6028,-5.5973,-5.5907,-5.5906,-5.5907,-5.5905,-5.5929,0,-5.5958,0,-5.5917,-5.5877,-5.5877,0,0,0,-5.5949,-5.6044,-5.5996,-5.6028,-5.5973,-5.5907,-5.593,-5.5905,-5.5902,-5.5926,-5.5957,-5.5955,-5.5916,-5.5877,-5.5877,-5.6093,-5.6095,0,0,-5.5953,-5.6032,-5.5998,-5.5996,-5.6009,-5.5932,-5.5928,-5.5902,-5.5943,-5.5957,-5.5953,-5.5916,-5.5877,-5.5878,-5.6091,-5.6094,0,0,0,-5.598,-5.6035,-5.5987,-5.5999,-5.5983,-5.5931,-5.5926,-5.5943,-5.5921,-5.5952,-5.5916,-5.5878,-5.5878,-5.6089,-5.6092,-5.6271,0,0,0,-5.5981,-5.6051,-5.599,-5.6038,-5.5984,-5.5962,-5.5969,-5.5923,-5.5918,-5.5916,-5.5878,-5.5878,-5.6086,-5.609,-5.6261,-5.6341,0,0,0,-5.6019,-5.6054,-5.6056,-5.6042,-5.6016,-5.5961,-5.5936,-5.592,-5.5897,-5.5877,-5.5878,-5.6085,-5.609,-5.6252,-5.6326,-5.6418,0,0,0,-5.6083,-5.6218,-5.606,-5.6197,-5.6018,-5.6073,-5.5935,-5.5973,-5.5978,-5.5878,-5.6087,-5.6092,-5.6249,-5.6317,-5.6409,-5.6507,-5.6556,0,0,-5.6297,-5.6247,-5.6321,-5.6178,-5.6281,-5.6077,-5.6206,-5.6137,-5.6065,-5.6088,-5.6092,-5.6264,-5.6325,-5.6416,-5.681,-5.685,0,0,0,-5.6415,-5.6469,-5.6479,-5.6487,-5.6438,-5.64,-5.6303,-5.6277,-5.6293,-5.6093,-5.6321,-5.6356,-5.6406,-5.6448,-5.6482,-5.6518,-5.6116,-5.6116,-5.6115,-5.683,-5.6728,-5.6842,-5.6733,-5.6743,-5.6641,-5.6638,-5.6586,-5.6483,-5.6539,-5.6544,-5.6795,-5.6849,-5.6873,-5.6912,-5.659,-5.6591,-5.6592,-5.6592,-5.713,-5.7189,-5.7047,-5.7107,-5.6999,-5.7049,-5.6956,-5.6881,-5.691,-5.6784,-5.6822,-5.6689,-5.692,-5.6948,-5.6605,-5.6602,-5.6601,-5.66,-5.6599,-5.7387,-5.7396,-5.7363,-5.7362,-5.7373,-5.7259,-5.7293,-5.7195,-5.7103,-5.7142,-5.7134,-5.713,-5.7111,-5.7146,-5.7147,-5.7147,-5.7148,-5.7149,-5.7149,-5.7664,-5.762,-5.766,-5.7619,-5.761,-5.7585,-5.7485,-5.7473,-5.7434,-5.736,-5.7359,-5.7248,-5.6963,-5.689,-5.7162,-5.716,-5.7158,-5.7157,-5.7156,-5.8,-5.7908,-5.7971,-5.7962,-5.7903,-5.7919,-5.7794,-5.7779,-5.7755,-5.7775,-5.7656,-5.7462,-5.7403,-5.7376,-5.7315,-5.768,-5.768,-5.768,-5.768,-5.8213,-5.8174,-5.8214,-5.8206,-5.8187,-5.808,-5.8152,-5.8076,-5.7982,-5.796,-5.7894,-5.7807,-5.7784,-5.7738,-5.7703,-5.7644,-5.8085,-5.8085,-5.8085,-5.8412,-5.8366,-5.8447,-5.8353,-5.83,-5.8257,-5.8321,-5.8316,-5.8191,-5.8099,-5.794,-5.7923,-5.7781,-5.7741,-5.7642,-5.759,-5.748,0,0]},{"header":{"parameterUnit":"m.s-1","parameterCategory":1,"la1":30.2992,"la2":30.254,"lo1":-89.0895,"lo2":-89.0443,"dy":0.0025,"dx":0.0025,"nx":19,"ny":19,"refTime":"2026-05-09T03:00:00:Z","depth":0,"parameterNumber":3,"parameterNumberName":"V-component_of_WINDS"},"data":[0,0,0,1.9593,1.9592,1.9553,1.9552,1.9511,1.9511,0,0,0,0,0,0,0,0,0,0,0,1.961,1.961,1.9593,1.9592,1.9553,1.9552,1.9511,1.9511,0,0,0,0,0,0,0,0,0,0,0,1.961,1.961,1.9609,1.9592,1.9553,1.9552,1.9511,1.9537,0,0,0,0,0,0,0,0,0,0,1.9574,1.9595,1.961,1.9609,1.9592,1.9553,1.9552,1.9539,1.9536,1.9532,0,1.9531,0,1.952,1.9508,1.9508,0,0,0,1.9588,1.9597,1.9582,1.9609,1.9591,1.9553,1.9569,1.9537,1.9534,1.9529,1.953,1.9529,1.952,1.9508,1.9508,1.9507,1.9508,0,0,1.959,1.9605,1.9584,1.958,1.9587,1.9571,1.9568,1.9535,1.9537,1.953,1.9527,1.9519,1.9508,1.9508,1.9507,1.9507,0,0,0,1.9599,1.9606,1.9592,1.9582,1.9575,1.9569,1.9567,1.9539,1.9533,1.9527,1.9519,1.9508,1.9507,1.9507,1.9507,1.9533,0,0,0,1.96,1.9612,1.9593,1.9602,1.9576,1.9556,1.9571,1.9535,1.9531,1.9519,1.9508,1.9507,1.9507,1.9507,1.9532,1.9542,0,0,0,1.961,1.9613,1.9609,1.9603,1.9587,1.9556,1.9548,1.9534,1.9526,1.9508,1.9507,1.9506,1.9507,1.9531,1.954,1.9548,0,0,0,1.9625,1.963,1.961,1.9613,1.9587,1.9573,1.9548,1.9536,1.9524,1.9508,1.9507,1.9507,1.953,1.9539,1.9547,1.9557,1.9563,0,0,1.9639,1.9632,1.9633,1.9614,1.9608,1.9578,1.9575,1.9548,1.9532,1.9517,1.9516,1.9532,1.954,1.9548,1.959,1.9595,0,0,0,1.9643,1.9643,1.9639,1.9629,1.9611,1.9597,1.957,1.9561,1.9548,1.9527,1.9537,1.9541,1.9545,1.9549,1.9553,1.9556,1.951,1.951,1.951,1.9683,1.9665,1.9666,1.9645,1.9636,1.9611,1.9603,1.9586,1.9567,1.9571,1.9565,1.9593,1.9599,1.9602,1.9605,1.9569,1.9569,1.957,1.957,1.9703,1.9702,1.9682,1.9676,1.9658,1.9652,1.963,1.9618,1.9611,1.9594,1.9597,1.958,1.9608,1.961,1.9571,1.9571,1.9571,1.9571,1.9571,1.9727,1.9723,1.9715,1.9703,1.9696,1.9674,1.967,1.9653,1.9636,1.9639,1.9633,1.9633,1.9631,1.9638,1.9638,1.9638,1.9638,1.9638,1.9638,1.9754,1.9744,1.9743,1.9729,1.9723,1.9714,1.9693,1.9686,1.9675,1.9663,1.9662,1.9645,1.9614,1.9607,1.964,1.9639,1.9639,1.9639,1.9639,1.978,1.9773,1.9771,1.9766,1.9751,1.9747,1.9727,1.9717,1.9709,1.9709,1.9693,1.9672,1.9662,1.9659,1.9653,1.9696,1.9696,1.9696,1.9696,1.9801,1.9796,1.9793,1.9786,1.9778,1.9762,1.9762,1.9748,1.9731,1.9726,1.9718,1.9709,1.9706,1.9698,1.9694,1.9688,1.9738,1.9739,1.9739,1.9816,1.9811,1.9814,1.98,1.9788,1.9778,1.9779,1.9774,1.9753,1.974,1.9722,1.9721,1.9705,1.9701,1.9685,1.9679,1.9667,0,0]}]]